Time,TemperatureF,DewpointF,PressureIn,WindDirection,WindDirectionDegrees,WindSpeedMPH,WindSpeedGustMPH,Humidity,HourlyPrecipIn,Conditions,Clouds,dailyrainin,SoftwareType,DateUTC
2013-01-07 00:03:00,35.6,33.5,30.09,WSW,239,0.0,0.0,92,0.00,,,0.02,LWC V2.00 B2112,2013-01-07 05:03:00,
2013-01-07 00:08:00,35.6,33.5,30.09,WSW,239,0.0,0.0,92,0.00,,,0.02,LWC V2.00 B2112,2013-01-07 05:08:00,
2013-01-07 00:13:00,35.5,33.4,30.09,WSW,239,0.0,0.0,92,0.00,,,0.02,LWC V2.00 B2112,2013-01-07 05:13:00,
2013-01-07 00:18:00,35.5,33.4,30.09,WSW,239,0.0,0.0,92,0.00,,,0.00,LWC V2.00 B2112,2013-01-07 05:18:00,
2013-01-07 00:23:00,35.3,33.2,30.09,WSW,239,0.0,0.0,92,0.00,,,0.00,LWC V2.00 B2112,2013-01-07 05:23:00,
2013-01-07 00:28:00,35.3,33.2,30.09,WSW,239,0.0,0.0,92,0.00,,,0.00,LWC V2.00 B2112,2013-01-07 05:28:00,
2013-01-07 00:33:00,35.2,33.1,30.09,WSW,239,0.0,0.0,92,0.00,,,0.00,LWC V2.00 B2112,2013-01-07 05:33:00,
2013-01-07 00:38:00,35.0,32.9,30.09,WSW,239,0.0,0.0,92,0.00,,,0.00,LWC V2.00 B2112,2013-01-07 05:38:00,
2013-01-07 00:43:00,35.0,32.9,30.09,WSW,239,0.0,0.0,92,0.00,,,0.00,LWC V2.00 B2112,2013-01-07 05:43:00,
2013-01-07 00:48:00,34.9,32.8,30.10,WSW,239,0.0,0.0,92,0.00,,,0.00,LWC V2.00 B2112,2013-01-07 05:48:00,
2013-01-07 00:53:00,34.7,32.6,30.10,WSW,239,0.0,0.0,92,0.00,,,0.00,LWC V2.00 B2112,2013-01-07 05:53:00,
2013-01-07 00:58:00,34.6,32.5,30.10,WSW,239,0.0,0.0,92,0.00,,,0.00,LWC V2.00 B2112,2013-01-07 05:58:00,
2013-01-07 01:03:00,34.4,32.3,30.09,WSW,239,0.0,0.0,92,0.00,,,0.00,LWC V2.00 B2112,2013-01-07 06:03:00,
2013-01-07 01:08:00,34.3,32.2,30.09,WSW,239,0.0,0.0,92,0.00,,,0.00,LWC V2.00 B2112,2013-01-07 06:08:00,
2013-01-07 01:13:00,34.3,32.2,30.09,WSW,239,0.0,0.0,92,0.00,,,0.00,LWC V2.00 B2112,2013-01-07 06:13:00,
2013-01-07 01:18:00,34.1,32.0,30.10,WSW,239,0.0,0.0,92,0.00,,,0.00,LWC V2.00 B2112,2013-01-07 06:18:00,
2013-01-07 01:23:00,34.0,31.7,30.10,WSW,239,0.0,0.0,91,0.00,,,0.00,LWC V2.00 B2112,2013-01-07 06:23:00,
2013-01-07 01:28:00,33.8,31.5,30.10,WSW,239,0.0,0.0,91,0.00,,,0.00,LWC V2.00 B2112,2013-01-07 06:28:00,
2013-01-07 01:33:00,33.8,31.5,30.10,WSW,239,0.0,0.0,91,0.00,,,0.00,LWC V2.00 B2112,2013-01-07 06:33:00,
2013-01-07 01:38:00,33.7,31.4,30.10,WSW,239,0.0,0.0,91,0.00,,,0.00,LWC V2.00 B2112,2013-01-07 06:38:00,
2013-01-07 01:43:00,33.4,31.1,30.10,WSW,239,0.0,0.0,91,0.00,,,0.00,LWC V2.00 B2112,2013-01-07 06:43:00,
2013-01-07 01:48:00,33.2,30.9,30.10,WSW,239,0.0,0.0,91,0.00,,,0.00,LWC V2.00 B2112,2013-01-07 06:48:00,
2013-01-07 01:53:00,33.1,30.8,30.10,WSW,239,0.0,0.0,91,0.00,,,0.00,LWC V2.00 B2112,2013-01-07 06:53:00,
2013-01-07 01:58:00,33.1,31.0,30.10,WSW,239,0.0,0.0,92,0.00,,,0.00,LWC V2.00 B2112,2013-01-07 06:58:00,
2013-01-07 02:03:00,33.2,31.1,30.11,WSW,239,0.0,0.0,92,0.00,,,0.00,LWC V2.00 B2112,2013-01-07 07:03:00,
2013-01-07 02:08:00,33.2,31.1,30.11,WSW,239,0.0,0.0,92,0.00,,,0.00,LWC V2.00 B2112,2013-01-07 07:08:00,
2013-01-07 02:13:00,33.4,31.3,30.11,WSW,239,0.0,0.0,92,0.00,,,0.00,LWC V2.00 B2112,2013-01-07 07:13:00,
2013-01-07 02:18:00,33.4,31.3,30.11,WSW,239,0.0,0.0,92,0.00,,,0.00,LWC V2.00 B2112,2013-01-07 07:18:00,
2013-01-07 02:23:00,33.2,30.9,30.11,WSW,239,0.0,0.0,91,0.00,,,0.00,LWC V2.00 B2112,2013-01-07 07:23:00,
2013-01-07 02:28:00,33.1,30.8,30.11,WSW,239,0.0,0.0,91,0.00,,,0.00,LWC V2.00 B2112,2013-01-07 07:28:00,
2013-01-07 02:33:00,33.1,30.8,30.11,WSW,239,0.0,0.0,91,0.00,,,0.00,LWC V2.00 B2112,2013-01-07 07:33:00,
2013-01-07 02:38:00,32.9,30.6,30.11,WSW,239,0.0,0.0,91,0.00,,,0.00,LWC V2.00 B2112,2013-01-07 07:38:00,
2013-01-07 02:43:00,32.8,30.5,30.11,WSW,239,0.0,0.0,91,0.00,,,0.00,LWC V2.00 B2112,2013-01-07 07:43:00,
2013-01-07 02:48:00,32.7,30.4,30.11,WSW,239,0.0,0.0,91,0.00,,,0.00,LWC V2.00 B2112,2013-01-07 07:48:00,
2013-01-07 02:53:00,32.7,30.4,30.11,WSW,239,0.0,0.0,91,0.00,,,0.00,LWC V2.00 B2112,2013-01-07 07:53:00,
2013-01-07 02:58:00,32.7,30.6,30.11,WSW,239,0.0,0.0,92,0.00,,,0.00,LWC V2.00 B2112,2013-01-07 07:58:00,
2013-01-07 03:03:00,32.7,30.4,30.12,WSW,239,0.0,0.0,91,0.00,,,0.00,LWC V2.00 B2112,2013-01-07 08:03:00,
2013-01-07 03:08:00,32.7,30.4,30.12,WSW,239,0.0,0.0,91,0.00,,,0.00,LWC V2.00 B2112,2013-01-07 08:08:00,
2013-01-07 03:13:00,32.7,30.4,30.12,WSW,239,0.0,0.0,91,0.00,,,0.00,LWC V2.00 B2112,2013-01-07 08:13:00,
2013-01-07 03:18:00,32.7,30.4,30.12,WSW,239,0.0,0.0,91,0.00,,,0.00,LWC V2.00 B2112,2013-01-07 08:18:00,
2013-01-07 03:23:00,32.7,30.4,30.12,WSW,239,0.0,0.0,91,0.00,,,0.00,LWC V2.00 B2112,2013-01-07 08:23:00,
2013-01-07 03:28:00,32.7,30.1,30.12,WSW,239,0.0,0.0,90,0.00,,,0.00,LWC V2.00 B2112,2013-01-07 08:28:00,
2013-01-07 03:33:00,32.7,30.1,30.12,WSW,239,0.0,0.0,90,0.00,,,0.00,LWC V2.00 B2112,2013-01-07 08:33:00,
2013-01-07 03:38:00,32.7,30.1,30.12,WSW,239,0.0,0.0,90,0.00,,,0.00,LWC V2.00 B2112,2013-01-07 08:38:00,
2013-01-07 03:43:00,32.7,30.1,30.12,WSW,239,0.0,0.0,90,0.00,,,0.00,LWC V2.00 B2112,2013-01-07 08:43:00,
2013-01-07 03:48:00,32.5,29.9,30.12,WSW,239,0.0,0.0,90,0.00,,,0.00,LWC V2.00 B2112,2013-01-07 08:48:00,
2013-01-07 03:53:00,32.4,29.8,30.12,WSW,239,0.0,0.0,90,0.00,,,0.00,LWC V2.00 B2112,2013-01-07 08:53:00,
2013-01-07 03:58:00,32.1,29.5,30.12,WSW,239,0.0,0.0,90,0.00,,,0.00,LWC V2.00 B2112,2013-01-07 08:58:00,
2013-01-07 04:03:00,31.9,29.3,30.13,WSW,239,0.0,0.0,90,0.00,,,0.00,LWC V2.00 B2112,2013-01-07 09:03:00,
2013-01-07 04:08:00,31.6,29.0,30.13,WSW,239,0.0,0.0,90,0.00,,,0.00,LWC V2.00 B2112,2013-01-07 09:08:00,
2013-01-07 04:13:00,31.5,28.9,30.13,WSW,239,0.0,0.0,90,0.00,,,0.00,LWC V2.00 B2112,2013-01-07 09:13:00,
2013-01-07 04:18:00,31.3,28.7,30.13,WSW,239,0.0,0.0,90,0.00,,,0.00,LWC V2.00 B2112,2013-01-07 09:18:00,
2013-01-07 04:23:00,31.2,28.9,30.13,WSW,239,0.0,0.0,91,0.00,,,0.00,LWC V2.00 B2112,2013-01-07 09:23:00,
2013-01-07 04:28:00,31.2,28.9,30.13,WSW,239,0.0,0.0,91,0.00,,,0.00,LWC V2.00 B2112,2013-01-07 09:28:00,
2013-01-07 04:33:00,31.2,28.9,30.13,WSW,239,0.0,0.0,91,0.00,,,0.00,LWC V2.00 B2112,2013-01-07 09:33:00,
2013-01-07 04:38:00,31.2,28.9,30.13,WSW,239,0.0,0.0,91,0.00,,,0.00,LWC V2.00 B2112,2013-01-07 09:38:00,
2013-01-07 04:43:00,31.2,29.2,30.13,WSW,239,0.0,0.0,92,0.00,,,0.00,LWC V2.00 B2112,2013-01-07 09:43:00,
2013-01-07 04:48:00,31.5,29.4,30.14,West,277,0.0,0.0,92,0.00,,,0.00,LWC V2.00 B2112,2013-01-07 09:48:00,
2013-01-07 04:53:00,31.8,29.5,30.14,West,277,0.0,0.0,91,0.00,,,0.00,LWC V2.00 B2112,2013-01-07 09:53:00,
2013-01-07 04:58:00,31.9,29.3,30.14,West,277,0.0,0.0,90,0.00,,,0.00,LWC V2.00 B2112,2013-01-07 09:58:00,
2013-01-07 05:03:00,32.1,29.2,30.15,West,277,0.0,0.0,89,0.00,,,0.00,LWC V2.00 B2112,2013-01-07 10:03:00,
2013-01-07 05:08:00,32.1,29.2,30.15,West,277,0.0,0.0,89,0.00,,,0.00,LWC V2.00 B2112,2013-01-07 10:08:00,
2013-01-07 05:13:00,32.4,29.2,30.15,West,277,0.0,0.0,88,0.00,,,0.00,LWC V2.00 B2112,2013-01-07 10:13:00,
2013-01-07 05:18:00,32.4,29.0,30.15,West,277,0.0,0.0,87,0.00,,,0.00,LWC V2.00 B2112,2013-01-07 10:18:00,
2013-01-07 05:23:00,32.5,29.1,30.15,West,278,0.0,0.0,87,0.00,,,0.00,LWC V2.00 B2112,2013-01-07 10:23:00,
2013-01-07 05:28:00,32.7,29.0,30.15,West,278,0.0,0.0,86,0.00,,,0.00,LWC V2.00 B2112,2013-01-07 10:28:00,
2013-01-07 05:33:00,32.8,29.1,30.16,West,278,0.0,0.0,86,0.00,,,0.00,LWC V2.00 B2112,2013-01-07 10:33:00,
2013-01-07 05:38:00,32.8,28.8,30.16,West,278,0.0,0.0,85,0.00,,,0.00,LWC V2.00 B2112,2013-01-07 10:38:00,
2013-01-07 05:43:00,32.5,28.5,30.16,West,278,0.0,0.0,85,0.00,,,0.00,LWC V2.00 B2112,2013-01-07 10:43:00,
2013-01-07 05:48:00,32.2,28.2,30.17,West,278,0.0,0.0,85,0.00,,,0.00,LWC V2.00 B2112,2013-01-07 10:48:00,
2013-01-07 05:53:00,32.1,28.4,30.17,West,278,0.0,0.0,86,0.00,,,0.00,LWC V2.00 B2112,2013-01-07 10:53:00,
2013-01-07 05:58:00,31.8,28.1,30.17,West,278,0.0,0.0,86,0.00,,,0.00,LWC V2.00 B2112,2013-01-07 10:58:00,
2013-01-07 06:03:00,31.6,28.2,30.19,West,278,0.0,0.0,87,0.00,,,0.00,LWC V2.00 B2112,2013-01-07 11:03:00,
2013-01-07 06:08:00,31.5,28.1,30.19,West,278,0.0,0.0,87,0.00,,,0.00,LWC V2.00 B2112,2013-01-07 11:08:00,
2013-01-07 06:13:00,31.3,27.9,30.19,West,278,0.0,0.0,87,0.00,,,0.00,LWC V2.00 B2112,2013-01-07 11:13:00,
2013-01-07 06:18:00,31.2,27.8,30.19,West,278,0.0,0.0,87,0.00,,,0.00,LWC V2.00 B2112,2013-01-07 11:18:00,
2013-01-07 06:23:00,31.0,27.9,30.19,West,278,0.0,0.0,88,0.00,,,0.00,LWC V2.00 B2112,2013-01-07 11:23:00,
2013-01-07 06:28:00,30.9,27.8,30.19,West,278,0.0,0.0,88,0.00,,,0.00,LWC V2.00 B2112,2013-01-07 11:28:00,
2013-01-07 06:33:00,30.7,27.6,30.20,West,278,0.0,0.0,88,0.00,,,0.00,LWC V2.00 B2112,2013-01-07 11:33:00,
2013-01-07 06:38:00,30.6,27.8,30.20,West,278,0.0,0.0,89,0.00,,,0.00,LWC V2.00 B2112,2013-01-07 11:38:00,
2013-01-07 06:43:00,30.6,27.8,30.20,West,278,0.0,0.0,89,0.00,,,0.00,LWC V2.00 B2112,2013-01-07 11:43:00,
2013-01-07 06:48:00,30.6,27.8,30.21,West,278,0.0,0.0,89,0.00,,,0.00,LWC V2.00 B2112,2013-01-07 11:48:00,
2013-01-07 06:53:00,30.4,27.6,30.21,West,278,0.0,0.0,89,0.00,,,0.00,LWC V2.00 B2112,2013-01-07 11:53:00,
2013-01-07 06:58:00,30.4,27.6,30.21,West,278,0.0,0.0,89,0.00,,,0.00,LWC V2.00 B2112,2013-01-07 11:58:00,
2013-01-07 07:03:00,30.3,27.5,30.22,West,278,0.0,0.0,89,0.00,,,0.00,LWC V2.00 B2112,2013-01-07 12:03:00,
2013-01-07 07:08:00,30.3,27.7,30.22,West,278,0.0,0.0,90,0.00,,,0.00,LWC V2.00 B2112,2013-01-07 12:08:00,
2013-01-07 07:13:00,30.3,27.7,30.22,West,278,0.0,0.0,90,0.00,,,0.00,LWC V2.00 B2112,2013-01-07 12:13:00,
2013-01-07 07:18:00,30.4,27.8,30.24,West,278,0.0,0.0,90,0.00,,,0.00,LWC V2.00 B2112,2013-01-07 12:18:00,
2013-01-07 07:23:00,30.6,28.0,30.24,West,278,0.0,0.0,90,0.00,,,0.00,LWC V2.00 B2112,2013-01-07 12:23:00,
2013-01-07 07:28:00,30.7,28.1,30.24,West,278,0.0,0.0,90,0.00,,,0.00,LWC V2.00 B2112,2013-01-07 12:28:00,
2013-01-07 07:33:00,31.2,28.1,30.25,West,278,0.0,0.0,88,0.00,,,0.00,LWC V2.00 B2112,2013-01-07 12:33:00,
2013-01-07 07:38:00,31.6,28.2,30.25,West,278,0.0,0.0,87,0.00,,,0.00,LWC V2.00 B2112,2013-01-07 12:38:00,
2013-01-07 07:43:00,32.1,28.4,30.25,NNW,328,0.0,0.0,86,0.00,,,0.00,LWC V2.00 B2112,2013-01-07 12:43:00,
2013-01-07 07:48:00,32.5,28.5,30.27,NNW,328,0.0,0.0,85,0.00,,,0.00,LWC V2.00 B2112,2013-01-07 12:48:00,
2013-01-07 07:53:00,32.9,28.3,30.27,NW,326,0.0,0.0,83,0.00,,,0.00,LWC V2.00 B2112,2013-01-07 12:53:00,
2013-01-07 07:58:00,33.1,28.5,30.27,NW,326,0.0,0.0,83,0.00,,,0.00,LWC V2.00 B2112,2013-01-07 12:58:00,
2013-01-07 08:03:00,33.2,28.6,30.27,NW,326,0.0,0.0,83,0.00,,,0.00,LWC V2.00 B2112,2013-01-07 13:03:00,
2013-01-07 08:08:00,33.4,28.5,30.27,NW,326,0.0,0.0,82,0.00,,,0.00,LWC V2.00 B2112,2013-01-07 13:08:00,
2013-01-07 08:13:00,33.5,28.3,30.27,NW,326,0.0,0.0,81,0.00,,,0.00,LWC V2.00 B2112,2013-01-07 13:13:00,
2013-01-07 08:18:00,34.0,28.8,30.29,NNW,328,0.0,0.0,81,0.00,,,0.00,LWC V2.00 B2112,2013-01-07 13:18:00,
2013-01-07 08:23:00,34.6,28.8,30.29,NNW,328,0.0,0.0,79,0.00,,,0.00,LWC V2.00 B2112,2013-01-07 13:23:00,
2013-01-07 08:28:00,35.3,28.8,30.29,NNW,328,0.0,0.0,77,0.00,,,0.00,LWC V2.00 B2112,2013-01-07 13:28:00,
2013-01-07 08:33:00,35.8,29.0,30.30,NNW,330,0.0,0.0,76,0.00,,,0.00,LWC V2.00 B2112,2013-01-07 13:33:00,
2013-01-07 08:38:00,36.2,28.7,30.30,NW,307,0.0,0.0,74,0.00,,,0.00,LWC V2.00 B2112,2013-01-07 13:38:00,
2013-01-07 08:43:00,36.8,29.0,30.30,NW,315,0.0,5.0,73,0.00,,,0.00,LWC V2.00 B2112,2013-01-07 13:43:00,
2013-01-07 08:48:00,37.2,29.0,30.30,NNW,345,0.0,0.0,72,0.00,,,0.00,LWC V2.00 B2112,2013-01-07 13:48:00,
2013-01-07 08:53:00,37.6,29.4,30.30,NNW,345,0.0,0.0,72,0.00,,,0.00,LWC V2.00 B2112,2013-01-07 13:53:00,
2013-01-07 08:58:00,37.9,29.7,30.30,NNW,345,0.0,0.0,72,0.00,,,0.00,LWC V2.00 B2112,2013-01-07 13:58:00,
2013-01-07 09:03:00,38.3,29.4,30.31,NNW,329,0.0,3.0,70,0.00,,,0.00,LWC V2.00 B2112,2013-01-07 14:03:00,
2013-01-07 09:08:00,38.8,29.5,30.31,NW,305,0.0,2.0,69,0.00,,,0.00,LWC V2.00 B2112,2013-01-07 14:08:00,
2013-01-07 09:13:00,39.2,29.9,30.31,NW,309,0.0,0.0,69,0.00,,,0.00,LWC V2.00 B2112,2013-01-07 14:13:00,
2013-01-07 09:18:00,39.5,29.8,30.31,ESE,113,0.0,0.0,68,0.00,,,0.00,LWC V2.00 B2112,2013-01-07 14:18:00,
2013-01-07 09:23:00,39.8,30.1,30.31,North,354,0.0,4.0,68,0.00,,,0.00,LWC V2.00 B2112,2013-01-07 14:23:00,
2013-01-07 09:28:00,40.2,30.1,30.31,North,11,0.0,0.0,67,0.00,,,0.00,LWC V2.00 B2112,2013-01-07 14:28:00,
2013-01-07 09:33:00,40.8,30.3,30.32,NNW,342,0.0,0.0,66,0.00,,,0.00,LWC V2.00 B2112,2013-01-07 14:33:00,
2013-01-07 09:38:00,41.3,30.4,30.32,NNW,342,0.0,0.0,65,0.00,,,0.00,LWC V2.00 B2112,2013-01-07 14:38:00,
2013-01-07 09:43:00,41.9,31.4,30.32,NNW,342,0.0,0.0,66,0.00,,,0.00,LWC V2.00 B2112,2013-01-07 14:43:00,
2013-01-07 09:48:00,42.6,30.9,30.33,ENE,71,0.0,1.0,63,0.00,,,0.00,LWC V2.00 B2112,2013-01-07 14:48:00,
2013-01-07 09:53:00,43.1,31.0,30.33,NW,319,0.0,1.0,62,0.00,,,0.00,LWC V2.00 B2112,2013-01-07 14:53:00,
2013-01-07 09:58:00,43.6,31.0,30.33,ENE,60,0.0,3.0,61,0.00,,,0.00,LWC V2.00 B2112,2013-01-07 14:58:00,
2013-01-07 10:03:00,43.9,31.3,30.33,North,349,0.0,2.0,61,0.00,,,0.00,LWC V2.00 B2112,2013-01-07 15:03:00,
2013-01-07 10:08:00,44.1,30.7,30.33,East,96,3.0,3.0,59,0.00,,,0.00,LWC V2.00 B2112,2013-01-07 15:08:00,
2013-01-07 10:13:00,44.2,31.2,30.33,ESE,104,0.0,0.0,60,0.00,,,0.00,LWC V2.00 B2112,2013-01-07 15:13:00,
2013-01-07 10:18:00,44.6,31.2,30.33,NE,55,0.0,0.0,59,0.00,,,0.00,LWC V2.00 B2112,2013-01-07 15:18:00,
2013-01-07 10:23:00,44.9,30.6,30.33,East,98,0.0,4.0,57,0.00,,,0.00,LWC V2.00 B2112,2013-01-07 15:23:00,
2013-01-07 10:28:00,45.2,32.1,30.33,ESE,112,1.0,1.0,60,0.00,,,0.00,LWC V2.00 B2112,2013-01-07 15:28:00,
2013-01-07 10:33:00,45.2,31.7,30.33,NNE,28,0.0,0.0,59,0.00,,,0.00,LWC V2.00 B2112,2013-01-07 15:33:00,
2013-01-07 10:38:00,45.7,31.8,30.33,ENE,68,0.0,0.0,58,0.00,,,0.00,LWC V2.00 B2112,2013-01-07 15:38:00,
2013-01-07 10:43:00,45.8,31.0,30.33,WNW,299,0.0,0.0,56,0.00,,,0.00,LWC V2.00 B2112,2013-01-07 15:43:00,
2013-01-07 10:48:00,46.2,31.8,30.33,WNW,300,0.0,3.0,57,0.00,,,0.00,LWC V2.00 B2112,2013-01-07 15:48:00,
2013-01-07 10:53:00,46.4,31.6,30.33,SE,124,0.0,5.0,56,0.00,,,0.00,LWC V2.00 B2112,2013-01-07 15:53:00,
2013-01-07 10:58:00,46.7,31.8,30.33,NNE,12,0.0,2.0,56,0.00,,,0.00,LWC V2.00 B2112,2013-01-07 15:58:00,
2013-01-07 11:03:00,47.0,31.7,30.33,North,4,0.0,0.0,55,0.00,,,0.00,LWC V2.00 B2112,2013-01-07 16:03:00,
2013-01-07 11:08:00,47.1,31.3,30.33,ENE,68,5.0,5.0,54,0.00,,,0.00,LWC V2.00 B2112,2013-01-07 16:08:00,
2013-01-07 11:13:00,47.0,31.7,30.33,East,84,0.0,0.0,55,0.00,,,0.00,LWC V2.00 B2112,2013-01-07 16:13:00,
2013-01-07 11:18:00,47.1,30.9,30.33,NNE,25,0.0,0.0,53,0.00,,,0.00,LWC V2.00 B2112,2013-01-07 16:18:00,
2013-01-07 11:23:00,47.7,32.3,30.33,East,96,0.0,0.0,55,0.00,,,0.00,LWC V2.00 B2112,2013-01-07 16:23:00,
2013-01-07 11:28:00,48.0,30.7,30.33,NNE,32,0.0,8.0,51,0.00,,,0.00,LWC V2.00 B2112,2013-01-07 16:28:00,
2013-01-07 11:33:00,47.7,31.4,30.32,WNW,290,0.0,0.0,53,0.00,,,0.00,LWC V2.00 B2112,2013-01-07 16:33:00,
2013-01-07 11:38:00,47.9,32.1,30.32,NW,306,0.0,0.0,54,0.00,,,0.00,LWC V2.00 B2112,2013-01-07 16:38:00,
2013-01-07 11:43:00,48.3,30.5,30.32,North,1,0.0,0.0,50,0.00,,,0.00,LWC V2.00 B2112,2013-01-07 16:43:00,
2013-01-07 11:48:00,48.8,31.5,30.31,NE,49,0.0,0.0,51,0.00,,,0.00,LWC V2.00 B2112,2013-01-07 16:48:00,
2013-01-07 11:53:00,48.9,31.6,30.31,WNW,295,0.0,0.0,51,0.00,,,0.00,LWC V2.00 B2112,2013-01-07 16:53:00,
2013-01-07 11:58:00,48.9,30.6,30.31,WNW,293,0.0,3.0,49,0.00,,,0.00,LWC V2.00 B2112,2013-01-07 16:58:00,
2013-01-07 12:03:00,49.1,31.8,30.31,East,96,3.0,3.0,51,0.00,,,0.00,LWC V2.00 B2112,2013-01-07 17:03:00,
2013-01-07 12:08:00,48.6,31.8,30.31,East,89,0.0,0.0,52,0.00,,,0.00,LWC V2.00 B2112,2013-01-07 17:08:00,
2013-01-07 12:13:00,48.6,31.3,30.31,ESE,112,0.0,0.0,51,0.00,,,0.00,LWC V2.00 B2112,2013-01-07 17:13:00,
2013-01-07 12:18:00,48.9,31.6,30.31,East,100,0.0,0.0,51,0.00,,,0.00,LWC V2.00 B2112,2013-01-07 17:18:00,
2013-01-07 12:23:00,49.4,32.0,30.31,NW,321,0.0,0.0,51,0.00,,,0.00,LWC V2.00 B2112,2013-01-07 17:23:00,
2013-01-07 12:28:00,49.9,32.5,30.31,ENE,78,0.0,0.0,51,0.00,,,0.00,LWC V2.00 B2112,2013-01-07 17:28:00,
2013-01-07 12:33:00,49.9,32.5,30.31,SE,125,0.0,0.0,51,0.00,,,0.00,LWC V2.00 B2112,2013-01-07 17:33:00,
2013-01-07 12:38:00,50.1,33.6,30.31,ENE,78,0.0,0.0,53,0.00,,,0.00,LWC V2.00 B2112,2013-01-07 17:38:00,
2013-01-07 12:43:00,50.5,31.5,30.31,WNW,294,0.0,0.0,48,0.00,,,0.00,LWC V2.00 B2112,2013-01-07 17:43:00,
2013-01-07 12:48:00,50.4,32.0,30.30,NE,47,0.0,0.0,49,0.00,,,0.00,LWC V2.00 B2112,2013-01-07 17:48:00,
2013-01-07 12:53:00,50.7,32.2,30.30,North,3,0.0,0.0,49,0.00,,,0.00,LWC V2.00 B2112,2013-01-07 17:53:00,
2013-01-07 12:58:00,50.4,31.5,30.30,NW,310,0.0,0.0,48,0.00,,,0.00,LWC V2.00 B2112,2013-01-07 17:58:00,
2013-01-07 13:03:00,49.9,30.0,30.30,West,279,0.0,0.0,46,0.00,,,0.00,LWC V2.00 B2112,2013-01-07 18:03:00,
2013-01-07 13:08:00,49.5,29.6,30.30,ESE,113,0.0,4.0,46,0.00,,,0.00,LWC V2.00 B2112,2013-01-07 18:08:00,
2013-01-07 13:13:00,49.5,29.0,30.30,ENE,66,0.0,0.0,45,0.00,,,0.00,LWC V2.00 B2112,2013-01-07 18:13:00,
2013-01-07 13:18:00,50.1,31.2,30.30,ESE,103,0.0,0.0,48,0.00,,,0.00,LWC V2.00 B2112,2013-01-07 18:18:00,
2013-01-07 13:23:00,50.2,30.8,30.30,ENE,62,0.0,0.0,47,0.00,,,0.00,LWC V2.00 B2112,2013-01-07 18:23:00,
2013-01-07 13:28:00,50.4,31.5,30.30,ESE,115,0.0,0.0,48,0.00,,,0.00,LWC V2.00 B2112,2013-01-07 18:28:00,
2013-01-07 13:33:00,50.7,31.7,30.30,ENE,66,0.0,0.0,48,0.00,,,0.00,LWC V2.00 B2112,2013-01-07 18:33:00,
2013-01-07 13:38:00,51.0,31.5,30.30,North,6,0.0,0.0,47,0.00,,,0.00,LWC V2.00 B2112,2013-01-07 18:38:00,
2013-01-07 13:43:00,51.0,30.4,30.30,NW,310,0.0,0.0,45,0.00,,,0.00,LWC V2.00 B2112,2013-01-07 18:43:00,
2013-01-07 13:48:00,50.8,30.2,30.30,SE,126,0.0,0.0,45,0.00,,,0.00,LWC V2.00 B2112,2013-01-07 18:48:00,
2013-01-07 13:53:00,51.1,30.5,30.30,West,279,0.0,4.0,45,0.00,,,0.00,LWC V2.00 B2112,2013-01-07 18:53:00,
2013-01-07 13:58:00,51.1,32.1,30.30,East,101,0.0,0.0,48,0.00,,,0.00,LWC V2.00 B2112,2013-01-07 18:58:00,
2013-01-07 14:03:00,51.1,32.1,30.30,East,101,0.0,0.0,48,0.00,,,0.00,LWC V2.00 B2112,2013-01-07 19:03:00,
2013-01-07 14:08:00,51.1,31.6,30.30,East,101,0.0,0.0,47,0.00,,,0.00,LWC V2.00 B2112,2013-01-07 19:08:00,
2013-01-07 14:13:00,50.7,30.7,30.30,East,97,0.0,0.0,46,0.00,,,0.00,LWC V2.00 B2112,2013-01-07 19:13:00,
2013-01-07 14:18:00,50.7,30.7,30.30,WNW,303,0.0,0.0,46,0.00,,,0.00,LWC V2.00 B2112,2013-01-07 19:18:00,
2013-01-07 14:23:00,50.8,31.3,30.30,SSW,210,0.0,0.0,47,0.00,,,0.00,LWC V2.00 B2112,2013-01-07 19:23:00,
2013-01-07 14:28:00,51.3,31.2,30.30,SE,131,0.0,0.0,46,0.00,,,0.00,LWC V2.00 B2112,2013-01-07 19:28:00,
2013-01-07 14:33:00,50.8,29.7,30.30,SE,141,0.0,0.0,44,0.00,,,0.00,LWC V2.00 B2112,2013-01-07 19:33:00,
2013-01-07 14:38:00,50.8,30.2,30.30,NNE,32,0.0,0.0,45,0.00,,,0.00,LWC V2.00 B2112,2013-01-07 19:38:00,
2013-01-07 14:43:00,50.7,30.1,30.30,ESE,103,0.0,0.0,45,0.00,,,0.00,LWC V2.00 B2112,2013-01-07 19:43:00,
2013-01-07 14:48:00,50.5,30.0,30.30,ESE,103,0.0,0.0,45,0.00,,,0.00,LWC V2.00 B2112,2013-01-07 19:48:00,
2013-01-07 14:53:00,50.7,30.1,30.30,ESE,103,0.0,0.0,45,0.00,,,0.00,LWC V2.00 B2112,2013-01-07 19:53:00,
2013-01-07 14:58:00,50.2,30.2,30.30,ESE,103,0.0,0.0,46,0.00,,,0.00,LWC V2.00 B2112,2013-01-07 19:58:00,
2013-01-07 15:03:00,50.2,30.2,30.30,ESE,103,0.0,0.0,46,0.00,,,0.00,LWC V2.00 B2112,2013-01-07 20:03:00,
2013-01-07 15:08:00,50.5,29.4,30.30,SSW,197,0.0,0.0,44,0.00,,,0.00,LWC V2.00 B2112,2013-01-07 20:08:00,
2013-01-07 15:13:00,51.6,31.5,30.30,SSW,198,0.0,0.0,46,0.00,,,0.00,LWC V2.00 B2112,2013-01-07 20:13:00,
2013-01-07 15:18:00,52.0,30.2,30.30,SSW,198,0.0,0.0,43,0.00,,,0.00,LWC V2.00 B2112,2013-01-07 20:18:00,
2013-01-07 15:23:00,51.6,30.4,30.30,East,96,0.0,0.0,44,0.00,,,0.00,LWC V2.00 B2112,2013-01-07 20:23:00,
2013-01-07 15:28:00,51.7,29.9,30.30,East,96,0.0,0.0,43,0.00,,,0.00,LWC V2.00 B2112,2013-01-07 20:28:00,
2013-01-07 15:33:00,51.0,29.9,30.31,East,96,0.0,0.0,44,0.00,,,0.00,LWC V2.00 B2112,2013-01-07 20:33:00,
2013-01-07 15:38:00,50.5,30.5,30.31,ESE,111,0.0,0.0,46,0.00,,,0.00,LWC V2.00 B2112,2013-01-07 20:38:00,
2013-01-07 15:43:00,50.5,29.4,30.31,ESE,111,0.0,0.0,44,0.00,,,0.00,LWC V2.00 B2112,2013-01-07 20:43:00,
2013-01-07 15:48:00,51.1,30.0,30.31,SE,130,0.0,0.0,44,0.00,,,0.00,LWC V2.00 B2112,2013-01-07 20:48:00,
2013-01-07 15:53:00,51.0,29.9,30.31,SE,130,0.0,0.0,44,0.00,,,0.00,LWC V2.00 B2112,2013-01-07 20:53:00,
2013-01-07 15:58:00,50.5,29.4,30.31,SE,130,0.0,0.0,44,0.00,,,0.00,LWC V2.00 B2112,2013-01-07 20:58:00,
2013-01-07 16:03:00,51.0,30.4,30.32,SE,130,0.0,0.0,45,0.00,,,0.00,LWC V2.00 B2112,2013-01-07 21:03:00,
2013-01-07 16:08:00,51.3,30.1,30.32,SE,130,0.0,0.0,44,0.00,,,0.00,LWC V2.00 B2112,2013-01-07 21:08:00,
2013-01-07 16:13:00,51.4,30.2,30.32,SE,130,0.0,0.0,44,0.00,,,0.00,LWC V2.00 B2112,2013-01-07 21:13:00,
2013-01-07 16:18:00,51.7,29.9,30.32,SE,130,0.0,0.0,43,0.00,,,0.00,LWC V2.00 B2112,2013-01-07 21:18:00,
2013-01-07 16:23:00,51.4,29.7,30.32,SE,131,0.0,0.0,43,0.00,,,0.00,LWC V2.00 B2112,2013-01-07 21:23:00,
2013-01-07 16:28:00,50.7,29.6,30.32,SSW,213,0.0,0.0,44,0.00,,,0.00,LWC V2.00 B2112,2013-01-07 21:28:00,
2013-01-07 16:33:00,49.8,29.9,30.32,SSW,213,0.0,0.0,46,0.00,,,0.00,LWC V2.00 B2112,2013-01-07 21:33:00,
2013-01-07 16:38:00,48.9,29.6,30.32,SSW,213,0.0,0.0,47,0.00,,,0.00,LWC V2.00 B2112,2013-01-07 21:38:00,
2013-01-07 16:43:00,48.2,29.9,30.32,SSW,213,0.0,0.0,49,0.00,,,0.00,LWC V2.00 B2112,2013-01-07 21:43:00,
2013-01-07 16:48:00,47.6,29.9,30.33,SSW,213,0.0,0.0,50,0.00,,,0.00,LWC V2.00 B2112,2013-01-07 21:48:00,
2013-01-07 16:53:00,47.1,29.9,30.33,SSW,213,0.0,0.0,51,0.00,,,0.00,LWC V2.00 B2112,2013-01-07 21:53:00,
2013-01-07 16:58:00,46.8,29.6,30.33,SSW,213,0.0,0.0,51,0.00,,,0.00,LWC V2.00 B2112,2013-01-07 21:58:00,
2013-01-07 17:03:00,46.4,29.7,30.33,SSW,213,0.0,0.0,52,0.00,,,0.00,LWC V2.00 B2112,2013-01-07 22:03:00,
2013-01-07 17:08:00,46.0,29.8,30.33,SSW,213,0.0,0.0,53,0.00,,,0.00,LWC V2.00 B2112,2013-01-07 22:08:00,
2013-01-07 17:13:00,45.5,29.8,30.33,SSW,213,0.0,0.0,54,0.00,,,0.00,LWC V2.00 B2112,2013-01-07 22:13:00,
2013-01-07 17:18:00,44.9,29.7,30.33,SSW,213,0.0,0.0,55,0.00,,,0.00,LWC V2.00 B2112,2013-01-07 22:18:00,
2013-01-07 17:23:00,44.3,30.0,30.33,SSW,213,0.0,0.0,57,0.00,,,0.00,LWC V2.00 B2112,2013-01-07 22:23:00,
2013-01-07 17:28:00,44.1,30.3,30.33,SSW,213,0.0,0.0,58,0.00,,,0.00,LWC V2.00 B2112,2013-01-07 22:28:00,
2013-01-07 17:33:00,43.6,30.2,30.33,SSW,213,0.0,0.0,59,0.00,,,0.00,LWC V2.00 B2112,2013-01-07 22:33:00,
2013-01-07 17:38:00,43.2,30.3,30.33,SSW,213,0.0,0.0,60,0.00,,,0.00,LWC V2.00 B2112,2013-01-07 22:38:00,
2013-01-07 17:43:00,43.1,30.6,30.33,SSW,213,0.0,0.0,61,0.00,,,0.00,LWC V2.00 B2112,2013-01-07 22:43:00,
2013-01-07 17:48:00,42.6,30.9,30.33,SSW,213,0.0,0.0,63,0.00,,,0.00,LWC V2.00 B2112,2013-01-07 22:48:00,
2013-01-07 17:53:00,42.2,30.5,30.33,SSW,213,0.0,0.0,63,0.00,,,0.00,LWC V2.00 B2112,2013-01-07 22:53:00,
2013-01-07 17:58:00,41.9,30.6,30.33,SSW,213,0.0,0.0,64,0.00,,,0.00,LWC V2.00 B2112,2013-01-07 22:58:00,
2013-01-07 18:03:00,41.6,30.7,30.34,SSW,213,0.0,0.0,65,0.00,,,0.00,LWC V2.00 B2112,2013-01-07 23:03:00,
2013-01-07 18:08:00,41.5,30.6,30.34,SSW,213,0.0,0.0,65,0.00,,,0.00,LWC V2.00 B2112,2013-01-07 23:08:00,
2013-01-07 18:13:00,41.1,30.6,30.34,SSW,213,0.0,0.0,66,0.00,,,0.00,LWC V2.00 B2112,2013-01-07 23:13:00,
2013-01-07 18:18:00,41.1,30.6,30.34,SSW,213,0.0,0.0,66,0.00,,,0.00,LWC V2.00 B2112,2013-01-07 23:18:00,
2013-01-07 18:23:00,40.8,30.7,30.34,SSW,213,0.0,0.0,67,0.00,,,0.00,LWC V2.00 B2112,2013-01-07 23:23:00,
2013-01-07 18:28:00,40.6,30.5,30.34,SSW,213,0.0,0.0,67,0.00,,,0.00,LWC V2.00 B2112,2013-01-07 23:28:00,
2013-01-07 18:33:00,40.3,30.6,30.34,SSW,213,0.0,0.0,68,0.00,,,0.00,LWC V2.00 B2112,2013-01-07 23:33:00,
2013-01-07 18:38:00,40.2,30.5,30.34,SSW,213,0.0,0.0,68,0.00,,,0.00,LWC V2.00 B2112,2013-01-07 23:38:00,
2013-01-07 18:43:00,39.9,30.2,30.34,SSW,213,0.0,0.0,68,0.00,,,0.00,LWC V2.00 B2112,2013-01-07 23:43:00,
2013-01-07 18:48:00,39.8,30.5,30.35,SSW,213,0.0,0.0,69,0.00,,,0.00,LWC V2.00 B2112,2013-01-07 23:48:00,
2013-01-07 18:53:00,39.6,30.3,30.35,SSW,213,0.0,0.0,69,0.00,,,0.00,LWC V2.00 B2112,2013-01-07 23:53:00,
2013-01-07 18:58:00,39.6,30.3,30.35,SSW,213,0.0,0.0,69,0.00,,,0.00,LWC V2.00 B2112,2013-01-07 23:58:00,
2013-01-07 19:03:00,39.6,30.3,30.35,SSW,213,0.0,0.0,69,0.00,,,0.00,LWC V2.00 B2112,2013-01-08 00:03:00,
2013-01-07 19:08:00,39.3,30.3,30.35,SSW,213,0.0,0.0,70,0.00,,,0.00,LWC V2.00 B2112,2013-01-08 00:08:00,
2013-01-07 19:13:00,39.2,30.3,30.35,SSW,213,0.0,0.0,70,0.00,,,0.00,LWC V2.00 B2112,2013-01-08 00:13:00,
2013-01-07 19:18:00,38.9,30.0,30.35,SSW,213,0.0,0.0,70,0.00,,,0.00,LWC V2.00 B2112,2013-01-08 00:18:00,
2013-01-07 19:23:00,38.9,30.0,30.35,SSW,213,0.0,0.0,70,0.00,,,0.00,LWC V2.00 B2112,2013-01-08 00:23:00,
2013-01-07 19:28:00,38.9,30.0,30.35,SSW,213,0.0,0.0,70,0.00,,,0.00,LWC V2.00 B2112,2013-01-08 00:28:00,
2013-01-07 19:33:00,38.8,30.2,30.35,SSW,213,0.0,0.0,71,0.00,,,0.00,LWC V2.00 B2112,2013-01-08 00:33:00,
2013-01-07 19:38:00,38.5,29.9,30.35,SSW,213,0.0,0.0,71,0.00,,,0.00,LWC V2.00 B2112,2013-01-08 00:38:00,
2013-01-07 19:43:00,38.2,29.6,30.35,SSW,213,0.0,0.0,71,0.00,,,0.00,LWC V2.00 B2112,2013-01-08 00:43:00,
2013-01-07 19:48:00,38.0,29.8,30.35,SSW,213,0.0,0.0,72,0.00,,,0.00,LWC V2.00 B2112,2013-01-08 00:48:00,
2013-01-07 19:53:00,37.9,29.7,30.35,SSW,213,0.0,0.0,72,0.00,,,0.00,LWC V2.00 B2112,2013-01-08 00:53:00,
2013-01-07 19:58:00,37.8,29.6,30.35,SSW,213,0.0,0.0,72,0.00,,,0.00,LWC V2.00 B2112,2013-01-08 00:58:00,
2013-01-07 20:03:00,37.9,29.7,30.35,SSW,213,0.0,0.0,72,0.00,,,0.00,LWC V2.00 B2112,2013-01-08 01:03:00,
2013-01-07 20:08:00,37.8,29.6,30.35,SSW,213,0.0,0.0,72,0.00,,,0.00,LWC V2.00 B2112,2013-01-08 01:08:00,
2013-01-07 20:13:00,37.6,29.4,30.35,SSW,213,0.0,0.0,72,0.00,,,0.00,LWC V2.00 B2112,2013-01-08 01:13:00,
2013-01-07 20:18:00,37.5,29.6,30.35,SSW,213,0.0,0.0,73,0.00,,,0.00,LWC V2.00 B2112,2013-01-08 01:18:00,
2013-01-07 20:23:00,37.2,29.4,30.35,SSW,213,0.0,0.0,73,0.00,,,0.00,LWC V2.00 B2112,2013-01-08 01:23:00,
2013-01-07 20:28:00,37.0,29.5,30.35,SSW,213,0.0,0.0,74,0.00,,,0.00,LWC V2.00 B2112,2013-01-08 01:28:00,
2013-01-07 20:33:00,36.9,29.4,30.35,SSW,213,0.0,0.0,74,0.00,,,0.00,LWC V2.00 B2112,2013-01-08 01:33:00,
2013-01-07 20:38:00,36.8,29.6,30.35,SSW,213,0.0,0.0,75,0.00,,,0.00,LWC V2.00 B2112,2013-01-08 01:38:00,
2013-01-07 20:43:00,36.8,29.6,30.35,SSW,213,0.0,0.0,75,0.00,,,0.00,LWC V2.00 B2112,2013-01-08 01:43:00,
2013-01-07 20:48:00,36.6,29.4,30.36,SSW,213,0.0,0.0,75,0.00,,,0.00,LWC V2.00 B2112,2013-01-08 01:48:00,
2013-01-07 20:53:00,36.6,29.4,30.36,SSW,213,0.0,0.0,75,0.00,,,0.00,LWC V2.00 B2112,2013-01-08 01:53:00,
2013-01-07 20:58:00,36.6,29.4,30.36,SSW,213,0.0,0.0,75,0.00,,,0.00,LWC V2.00 B2112,2013-01-08 01:58:00,
2013-01-07 21:03:00,36.5,29.7,30.35,SSW,213,0.0,0.0,76,0.00,,,0.00,LWC V2.00 B2112,2013-01-08 02:03:00,
2013-01-07 21:08:00,36.3,29.5,30.35,SSW,213,0.0,0.0,76,0.00,,,0.00,LWC V2.00 B2112,2013-01-08 02:08:00,
2013-01-07 21:13:00,36.3,29.5,30.35,SSW,213,0.0,0.0,76,0.00,,,0.00,LWC V2.00 B2112,2013-01-08 02:13:00,
2013-01-07 21:18:00,36.2,29.7,30.35,SSW,213,0.0,0.0,77,0.00,,,0.00,LWC V2.00 B2112,2013-01-08 02:18:00,
2013-01-07 21:23:00,36.0,29.5,30.35,SSW,213,0.0,0.0,77,0.00,,,0.00,LWC V2.00 B2112,2013-01-08 02:23:00,
2013-01-07 21:28:00,35.9,29.7,30.35,SSW,213,0.0,0.0,78,0.00,,,0.00,LWC V2.00 B2112,2013-01-08 02:28:00,
2013-01-07 21:33:00,35.9,29.7,30.35,SSW,213,0.0,0.0,78,0.00,,,0.00,LWC V2.00 B2112,2013-01-08 02:33:00,
2013-01-07 21:38:00,35.8,29.6,30.35,SSW,213,0.0,0.0,78,0.00,,,0.00,LWC V2.00 B2112,2013-01-08 02:38:00,
2013-01-07 21:43:00,35.8,29.6,30.35,SSW,213,0.0,0.0,78,0.00,,,0.00,LWC V2.00 B2112,2013-01-08 02:43:00,
2013-01-07 21:48:00,36.0,29.8,30.35,SSW,213,0.0,0.0,78,0.00,,,0.00,LWC V2.00 B2112,2013-01-08 02:48:00,
2013-01-07 21:53:00,36.2,29.7,30.35,SSW,213,0.0,0.0,77,0.00,,,0.00,LWC V2.00 B2112,2013-01-08 02:53:00,
2013-01-07 21:58:00,36.0,29.5,30.35,SSW,213,0.0,0.0,77,0.00,,,0.00,LWC V2.00 B2112,2013-01-08 02:58:00,
2013-01-07 22:08:00,35.6,29.4,30.35,SSW,213,0.0,0.0,78,0.00,,,0.00,LWC V2.00 B2112,2013-01-08 03:08:00,
2013-01-07 22:13:00,35.5,29.6,30.35,SSW,213,0.0,0.0,79,0.00,,,0.00,LWC V2.00 B2112,2013-01-08 03:13:00,
2013-01-07 22:18:00,35.3,29.5,30.35,SSW,213,0.0,0.0,79,0.00,,,0.00,LWC V2.00 B2112,2013-01-08 03:18:00,
2013-01-07 22:23:00,35.3,29.5,30.35,SSW,213,0.0,0.0,79,0.00,,,0.00,LWC V2.00 B2112,2013-01-08 03:23:00,
2013-01-07 22:28:00,35.2,29.4,30.35,SSW,213,0.0,0.0,79,0.00,,,0.00,LWC V2.00 B2112,2013-01-08 03:28:00,
2013-01-07 22:33:00,35.2,29.4,30.34,SSW,213,0.0,0.0,79,0.00,,,0.00,LWC V2.00 B2112,2013-01-08 03:33:00,
2013-01-07 22:38:00,35.0,29.2,30.34,SSW,213,0.0,0.0,79,0.00,,,0.00,LWC V2.00 B2112,2013-01-08 03:38:00,
2013-01-07 22:43:00,35.0,29.2,30.34,SSW,213,0.0,0.0,79,0.00,,,0.00,LWC V2.00 B2112,2013-01-08 03:43:00,
2013-01-07 22:48:00,35.0,29.5,30.34,SSW,213,0.0,0.0,80,0.00,,,0.00,LWC V2.00 B2112,2013-01-08 03:48:00,
2013-01-07 22:53:00,34.9,29.4,30.34,SSW,213,0.0,0.0,80,0.00,,,0.00,LWC V2.00 B2112,2013-01-08 03:53:00,
2013-01-07 22:58:00,34.9,29.4,30.34,SSW,213,0.0,0.0,80,0.00,,,0.00,LWC V2.00 B2112,2013-01-08 03:58:00,
2013-01-07 23:03:00,35.0,29.5,30.34,SSW,213,0.0,0.0,80,0.00,,,0.00,LWC V2.00 B2112,2013-01-08 04:03:00,
2013-01-07 23:08:00,35.0,29.2,30.34,SSW,213,0.0,0.0,79,0.00,,,0.00,LWC V2.00 B2112,2013-01-08 04:08:00,
2013-01-07 23:13:00,34.9,29.1,30.34,SSW,213,0.0,0.0,79,0.00,,,0.00,LWC V2.00 B2112,2013-01-08 04:13:00,
2013-01-07 23:18:00,34.7,28.9,30.34,SSW,213,0.0,0.0,79,0.00,,,0.00,LWC V2.00 B2112,2013-01-08 04:18:00,
2013-01-07 23:23:00,34.7,29.2,30.34,SSW,213,0.0,0.0,80,0.00,,,0.00,LWC V2.00 B2112,2013-01-08 04:23:00,
2013-01-07 23:28:00,34.7,29.2,30.34,SSW,213,0.0,0.0,80,0.00,,,0.00,LWC V2.00 B2112,2013-01-08 04:28:00,
2013-01-07 23:33:00,34.7,29.2,30.33,SSW,213,0.0,0.0,80,0.00,,,0.00,LWC V2.00 B2112,2013-01-08 04:33:00,
2013-01-07 23:38:00,34.9,29.4,30.33,SSW,213,0.0,0.0,80,0.00,,,0.00,LWC V2.00 B2112,2013-01-08 04:38:00,
2013-01-07 23:43:00,34.7,29.2,30.33,SSW,213,0.0,0.0,80,0.00,,,0.00,LWC V2.00 B2112,2013-01-08 04:43:00,
2013-01-07 23:48:00,34.9,29.7,30.33,SSW,213,0.0,0.0,81,0.00,,,0.00,LWC V2.00 B2112,2013-01-08 04:48:00,
2013-01-07 23:53:00,35.3,29.8,30.33,SSW,213,0.0,0.0,80,0.00,,,0.00,LWC V2.00 B2112,2013-01-08 04:53:00,
2013-01-07 23:58:00,35.6,29.7,30.33,SSW,213,0.0,0.0,79,0.00,,,0.00,LWC V2.00 B2112,2013-01-08 04:58:00,